Location: Champseau
(45.8333°N, 1.7667°E)
Time: 22:54:02
(UTC+00:00)

AAUSAT CUBESAT 2 - Visible Passes

Search period start: 01 December 2021 00:00
Search period end: 11 December 2021 00:00
Orbit: 570 x 588 km, 97.5° (Epoch: 01 December)

Date Brightness Start Highest point End Pass type
(mag) Time Alt. Az. Time Alt. Az. Time Alt. Az.
01 Dec ? 05:16:16 10° N 05:20:22 79° WNW 05:24:28 10° SSW visible
02 Dec ? 03:48:04 10° ENE 03:49:16 11° E 03:50:29 10° ESE visible
02 Dec ? 05:21:00 10° N 05:25:04 70° WNW 05:29:09 10° SSW visible
03 Dec ? 03:52:14 10° ENE 03:54:03 13° E 03:55:51 10° ESE visible
03 Dec ? 05:25:43 10° N 05:29:46 62° WNW 05:33:49 10° SSW visible
04 Dec ? 03:56:34 10° ENE 03:58:48 14° E 04:01:01 10° ESE visible
04 Dec ? 05:30:27 10° N 05:34:28 54° WNW 05:38:28 10° SSW visible
05 Dec ? 04:01:00 10° NE 04:03:33 16° E 04:06:06 10° SE visible
05 Dec ? 05:35:11 10° N 05:39:09 48° WNW 05:43:06 10° SSW visible
06 Dec ? 04:05:28 10° NE 04:08:18 18° E 04:11:07 10° SE visible
06 Dec ? 05:39:56 10° N 05:43:50 43° WNW 05:47:43 10° SW visible
07 Dec ? 04:09:58 10° NE 04:13:02 20° E 04:16:05 10° SE visible
07 Dec ? 05:44:41 10° N 05:48:30 38° WNW 05:52:19 10° SW visible
07 Dec ? 16:35:40 10° S 16:39:33 44° W 16:43:29 10° NNW visible
08 Dec ? 04:14:31 10° NE 04:17:46 22° E 04:21:00 10° SE visible
08 Dec ? 05:49:26 10° N 05:53:10 34° WNW 05:56:53 10° SW visible
08 Dec ? 16:40:28 10° SSW 16:44:16 39° W 16:48:07 10° NNW visible
09 Dec ? 04:19:03 10° NE 04:22:29 25° E 04:25:54 10° SSE visible
09 Dec ? 05:54:12 10° N 05:57:50 31° WNW 06:01:26 10° SW visible
09 Dec ? 16:45:15 10° SSW 16:48:58 35° W 16:52:44 10° NNW visible
10 Dec ? 04:23:38 10° NE 04:27:12 28° E 04:30:46 10° SSE visible
10 Dec ? 05:58:58 10° N 06:02:28 28° WNW 06:06:00 10° SW visible
10 Dec ? 16:50:03 10° SSW 16:53:41 31° W 16:57:19 10° NNW visible
